Regional Weather Roundup
Issued by NWS

Home | Current Version | Previous Version | Graphics & Text | Print | Product List | Glossary On
Versions: 1 2 3 4 5 6 7 8 9 10 11 12 13 14 15 16 17 18 19 20 21 22 23 24 25 26 27 28 29 30 31 32 33 34 35 36 37 38 39 40 41 42 43 44 45 46 47 48 49 50
000
ASUS45 KABQ 241010
RWRNM
NEW MEXICO REGIONAL WEATHER ROUNDUP
NATIONAL WEATHER SERVICE ALBUQUERQUE NM
300 AM MST FRI FEB 24 2017

NOTE: "FAIR" MEANS FEW OR NO CLOUDS BELOW 12,000 FEET AGL WITH NO
       SIGNIFICANT WEATHER OR OBSTRUCTIONS TO VISION.

      THIS PRODUCT IS RELEASED AS TWO VERSIONS.  ONE VERSION NEAR
      THE TOP OF THE HOUR CONTAINING PRELIMINARY DATA FROM ALBUQUERQUE
      AND OTHER STATIONS.  A FINAL VERSION WITH ADDITIONAL DATA IS
      ISSUED ABOUT 10 MINUTES AFTER THE HOUR.

NMZ501-503-504-510>518-241100-
NORTHWEST PLATEAU/NORTHCENTRAL MOUNTAINS

CITY           SKY/WX    TMP DP  RH WIND       PRES   REMARKS
FARMINGTON     CLOUDY    29   6  38 W9        29.83S WCI  20
LOS ALAMOS     FAIR      25   7  46 CALM      29.80F
SANTA FE       FAIR      23   7  50 NW6       29.80S WCI  16
TAOS           FAIR      18  -2  41 W12       29.79R WCI   5
ANGEL FIRE     CLOUDY    19   1  44 SW7G20    29.74S WCI  10

$$
NMZ402-403-502-505>509-241100-
WESTCENTRAL MOUNTAINS/SOUTHWEST MOUNTAINS

CITY           SKY/WX    TMP DP  RH WIND       PRES   REMARKS
GALLUP         CLOUDY    28   7  41 W13       29.88R WCI  17
GRANTS         FAIR      27  15  61 NW13G24   29.88R WCI  16
SILVER CITY    FAIR      28  13  53 NW5       29.93S WCI  23

$$
NMZ407-409-411-412-241100-
SOUTHERN DESERTS

CITY           SKY/WX    TMP DP  RH WIND       PRES   REMARKS
DEMING         FAIR      39  15  37 W10       29.94R WCI  32
LAS CRUCES     FAIR      40  10  29 W22       29.89R WCI  30
HOLLOMAN AFB   FAIR      46   8  21 W14       29.91R
ALAMOGORDO     FAIR      45   9  23 S9        29.90S
T OR C         FAIR      40   3  21 NW6       29.87S

$$
NMZ519>523-241100-
CENTRAL VALLEYS/CENTRAL HIGHLANDS

CITY           SKY/WX    TMP DP  RH WIND       PRES   REMARKS
ALBUQUERQUE    FAIR      34  16  47 W6        29.85S WCI  29
DOUBLE EAGLE   CLOUDY    33  16  48 W9        29.85R WCI  26
MORIARTY ARPT  FAIR      28  15  58 NW9       29.82S WCI  20
CLINES CORNERS CLOUDY    27  10  49 W12       29.80R WCI  17
BELEN          FAIR      32  17  53 W5        29.87S WCI  27
SOCORRO        FAIR      38   4  24 W3        29.88R

$$
NMZ524>526-539-540-241100-
SOUTHCENTRAL MOUNTAINS

CITY           SKY/WX    TMP DP  RH WIND       PRES   REMARKS
RUIDOSO        FAIR      34  -2  21 W10G21    29.84S WCI  26

$$
NMZ527>531-241100-
NORTHEAST HIGHLANDS/NORTHEAST PLAINS

CITY           SKY/WX    TMP DP  RH WIND       PRES   REMARKS
LAS VEGAS      FAIR      22   6  50 S8        29.75S WCI  12
RATON          FAIR      17  10  74 NE6       29.73S WCI   9
CLAYTON        FAIR      21  20  96 N5        29.79R WCI  15

$$
NMZ532>537-241100-
EASTCENTRAL PLAINS

CITY           SKY/WX    TMP DP  RH WIND       PRES   REMARKS
TUCUMCARI      FAIR      28  25  88 E8        29.81R WCI  20
CANNON AFB     FAIR      30  30 100 NW14      29.80R WCI  20
CLOVIS AIRPORT CLOUDY    32  27  80 N16       29.81R WCI  21

$$
NMZ028-029-538-241100-
SOUTHEAST PLAINS

CITY           SKY/WX    TMP DP  RH WIND       PRES   REMARKS
ROSWELL        FAIR      49   2  14 NW12        N/A
ARTESIA        FAIR      46   5  18 W10       29.80R
CARLSBAD       FAIR      55   4  12 W29G41    29.73F
HOBBS          FAIR      41  10  28 SW9       29.81R


$$



USA.gov is the U.S. government's official web portal to all federal, state and local government web resources and services.